DEHRS EDXH-EDXW

Flight info

Callsign DEHRS
Flight time 0h 25m
Altitude 5000
Route 544454N0081900E/N0111F040 DCT 545018N0081900E
Aircraft C172/L-SFG/C

Departure

Time 2026-05-06 08:57
Airport Helgoland-Düne Airport (EDXH)

Arrival

Time 2026-05-06 09:23
Airport Westerland Sylt Airport (EDXW)
Time Latitude Longitude Altitude Speed Heading
2026-05-06 08:50 54.18644 7.91423 5 ft 0 kts 51°
2026-05-06 08:53 54.18654 7.91456 5 ft 7 kts 65°
2026-05-06 08:54 54.18664 7.91519 5 ft 7 kts 119°
2026-05-06 08:54 54.18663 7.91590 3 ft 6 kts 142°
2026-05-06 08:54 54.18597 7.91540 4 ft 16 kts 207°
2026-05-06 08:54 54.18503 7.91483 7 ft 13 kts 159°
2026-05-06 08:55 54.18436 7.91566 6 ft 12 kts 144°
2026-05-06 08:55 54.18375 7.91641 7 ft 9 kts 143°
2026-05-06 08:55 54.18336 7.91687 9 ft 5 kts 146°
2026-05-06 08:55 54.18314 7.91706 9 ft 3 kts 202°
2026-05-06 08:56 54.18325 7.91671 9 ft 18 kts 328°
2026-05-06 08:56 54.18589 7.91351 6 ft 71 kts 323°
2026-05-06 08:56 54.18799 7.90518 124 ft 101 kts 264°
2026-05-06 08:56 54.18392 7.89486 220 ft 119 kts 208°
2026-05-06 08:57 54.17611 7.89445 309 ft 110 kts 144°
2026-05-06 08:57 54.17325 7.90535 327 ft 99 kts 70°
2026-05-06 08:57 54.17825 7.91119 493 ft 93 kts 19°
2026-05-06 08:57 54.18449 7.91504 631 ft 98 kts 22°
2026-05-06 08:58 54.19097 7.91914 757 ft 99 kts 24°
2026-05-06 08:58 54.19739 7.92342 891 ft 99 kts 25°
2026-05-06 08:58 54.20402 7.92799 927 ft 106 kts 26°
2026-05-06 08:58 54.21096 7.93283 927 ft 108 kts 25°
2026-05-06 08:59 54.21793 7.93771 933 ft 109 kts 27°
2026-05-06 08:59 54.22497 7.94267 933 ft 109 kts 27°
2026-05-06 08:59 54.23194 7.94756 931 ft 108 kts 27°
2026-05-06 08:59 54.23899 7.95256 919 ft 110 kts 26°
2026-05-06 09:00 54.24363 7.95580 920 ft 108 kts 26°
2026-05-06 09:00 54.25056 7.96070 923 ft 107 kts 26°
2026-05-06 09:00 54.25749 7.96560 929 ft 109 kts 27°
2026-05-06 09:00 54.26449 7.97054 926 ft 109 kts 27°
2026-05-06 09:01 54.27150 7.97550 929 ft 109 kts 27°
2026-05-06 09:01 54.27854 7.98049 924 ft 110 kts 25°
2026-05-06 09:01 54.28559 7.98546 932 ft 110 kts 27°
2026-05-06 09:01 54.29263 7.99043 932 ft 109 kts 28°
2026-05-06 09:02 54.29969 7.99544 934 ft 110 kts 28°
2026-05-06 09:02 54.30687 8.00053 934 ft 113 kts 26°
2026-05-06 09:02 54.31414 8.00567 939 ft 113 kts 27°
2026-05-06 09:02 54.32137 8.01079 938 ft 112 kts 26°
2026-05-06 09:03 54.32858 8.01588 940 ft 111 kts 28°
2026-05-06 09:03 54.33561 8.02086 940 ft 108 kts 27°
2026-05-06 09:03 54.34250 8.02575 936 ft 107 kts 27°
2026-05-06 09:03 54.34939 8.03063 936 ft 107 kts 27°
2026-05-06 09:04 54.35632 8.03562 934 ft 109 kts 27°
2026-05-06 09:04 54.36340 8.04062 933 ft 111 kts 26°
2026-05-06 09:04 54.37054 8.04562 941 ft 110 kts 26°
2026-05-06 09:04 54.37757 8.05063 941 ft 109 kts 26°
2026-05-06 09:05 54.38456 8.05560 944 ft 109 kts 26°
2026-05-06 09:05 54.39148 8.06053 941 ft 109 kts 27°
2026-05-06 09:05 54.39855 8.06556 939 ft 109 kts 28°
2026-05-06 09:05 54.40554 8.07053 941 ft 109 kts 28°
2026-05-06 09:06 54.41246 8.07546 944 ft 109 kts 27°
2026-05-06 09:06 54.41953 8.08050 943 ft 111 kts 27°
2026-05-06 09:06 54.42663 8.08554 945 ft 110 kts 27°
2026-05-06 09:06 54.43369 8.09057 943 ft 110 kts 26°
2026-05-06 09:07 54.44069 8.09556 944 ft 108 kts 28°
2026-05-06 09:07 54.44761 8.10049 945 ft 108 kts 27°
2026-05-06 09:07 54.45465 8.10552 942 ft 111 kts 27°
2026-05-06 09:07 54.46186 8.11067 944 ft 113 kts 26°
2026-05-06 09:08 54.46916 8.11588 941 ft 114 kts 26°
2026-05-06 09:08 54.47637 8.12101 940 ft 110 kts 27°
2026-05-06 09:08 54.48337 8.12602 930 ft 109 kts 25°
2026-05-06 09:08 54.49045 8.13107 932 ft 111 kts 25°
2026-05-06 09:09 54.49763 8.13621 935 ft 113 kts 25°
2026-05-06 09:09 54.50495 8.14145 933 ft 114 kts 26°
2026-05-06 09:09 54.51225 8.14667 933 ft 114 kts 25°
2026-05-06 09:09 54.51956 8.15190 935 ft 113 kts 26°
2026-05-06 09:10 54.52681 8.15708 930 ft 113 kts 26°
2026-05-06 09:10 54.53400 8.16223 932 ft 111 kts 26°
2026-05-06 09:10 54.54114 8.16735 930 ft 112 kts 25°
2026-05-06 09:10 54.54837 8.17253 932 ft 112 kts 25°
2026-05-06 09:11 54.55556 8.17769 934 ft 112 kts 26°
2026-05-06 09:11 54.56269 8.18279 932 ft 111 kts 26°
2026-05-06 09:11 54.56987 8.18796 932 ft 113 kts 26°
2026-05-06 09:11 54.57714 8.19318 918 ft 113 kts 26°
2026-05-06 09:12 54.58442 8.19840 933 ft 112 kts 25°
2026-05-06 09:12 54.59164 8.20359 934 ft 113 kts 25°
2026-05-06 09:12 54.59893 8.20882 934 ft 114 kts 26°
2026-05-06 09:12 54.60628 8.21411 930 ft 113 kts 26°
2026-05-06 09:13 54.61351 8.21931 924 ft 112 kts 25°
2026-05-06 09:13 54.62068 8.22447 928 ft 112 kts 26°
2026-05-06 09:13 54.62796 8.22971 929 ft 114 kts 27°
2026-05-06 09:13 54.63527 8.23499 926 ft 114 kts 26°
2026-05-06 09:14 54.64266 8.24031 925 ft 116 kts 26°
2026-05-06 09:14 54.65009 8.24565 924 ft 116 kts 26°
2026-05-06 09:14 54.65726 8.25080 928 ft 111 kts 27°
2026-05-06 09:14 54.66450 8.25599 919 ft 115 kts 26°
2026-05-06 09:15 54.67173 8.26121 929 ft 113 kts 26°
2026-05-06 09:15 54.67896 8.26649 932 ft 113 kts 26°
2026-05-06 09:15 54.68619 8.27171 933 ft 112 kts 27°
2026-05-06 09:15 54.69337 8.27690 937 ft 112 kts 26°
2026-05-06 09:16 54.70059 8.28211 936 ft 113 kts 26°
2026-05-06 09:16 54.70787 8.28738 937 ft 113 kts 26°
2026-05-06 09:16 54.71513 8.29263 939 ft 114 kts 25°
2026-05-06 09:16 54.72263 8.29806 942 ft 116 kts 25°
2026-05-06 09:17 54.72993 8.30334 930 ft 114 kts 25°
2026-05-06 09:17 54.73721 8.30859 928 ft 113 kts 25°
2026-05-06 09:17 54.74453 8.31389 928 ft 114 kts 25°
2026-05-06 09:17 54.75180 8.31917 928 ft 113 kts 25°
2026-05-06 09:18 54.75912 8.32447 932 ft 116 kts 25°
2026-05-06 09:18 54.76659 8.32989 932 ft 116 kts 25°
2026-05-06 09:18 54.77398 8.33525 942 ft 114 kts 25°
2026-05-06 09:18 54.78134 8.34059 941 ft 115 kts 25°
2026-05-06 09:19 54.78877 8.34599 935 ft 116 kts 26°
2026-05-06 09:19 54.79622 8.35140 936 ft 116 kts 24°
2026-05-06 09:19 54.80360 8.35676 936 ft 115 kts 24°
2026-05-06 09:19 54.81095 8.36210 935 ft 116 kts 25°
2026-05-06 09:20 54.81831 8.36744 936 ft 113 kts 24°
2026-05-06 09:20 54.82556 8.37271 937 ft 114 kts 26°
2026-05-06 09:20 54.83294 8.37810 938 ft 116 kts 25°
2026-05-06 09:20 54.84043 8.38356 935 ft 118 kts 25°
2026-05-06 09:21 54.84799 8.38906 933 ft 118 kts 25°
2026-05-06 09:21 54.85569 8.39368 925 ft 119 kts
2026-05-06 09:21 54.86386 8.39274 904 ft 122 kts 356°
2026-05-06 09:21 54.87224 8.38865 788 ft 129 kts 342°
2026-05-06 09:22 54.88023 8.38121 682 ft 131 kts 332°
2026-05-06 09:22 54.88783 8.37196 491 ft 133 kts 331°
2026-05-06 09:22 54.89506 8.36290 291 ft 123 kts 328°
2026-05-06 09:22 54.90135 8.35543 168 ft 91 kts 325°
2026-05-06 09:23 54.90591 8.34955 68 ft 73 kts 324°
2026-05-06 09:23 54.90978 8.34473 32 ft 59 kts 324°
2026-05-06 09:23 54.91237 8.34149 31 ft 36 kts 323°
2026-05-06 09:23 54.91296 8.33972 30 ft 19 kts 239°
2026-05-06 09:24 54.91179 8.33619 28 ft 39 kts 240°
2026-05-06 09:24 54.91067 8.33288 28 ft 22 kts 244°
2026-05-06 09:24 54.91109 8.33179 29 ft 9 kts
2026-05-06 09:24 54.91182 8.33182 29 ft 11 kts 360°
2026-05-06 09:25 54.91255 8.33180 26 ft 9 kts
2026-05-06 09:25 54.91302 8.33182 24 ft 7 kts 326°
2026-05-06 09:25 54.91311 8.33114 24 ft 6 kts 271°
2026-05-06 09:25 54.91311 8.33101 24 ft 0 kts 270°